Simultaneous Nadir Overpasses (SNOs) Predictions

Prediction of SNOs between NOAA-19 and TERRA Satellite Orbit:

Table of predicted SNOs for the next 14.0 days since TLE Epoch: 4/20/2015
Index Date (NOAA-19) Time (NOAA-19) Lat,Lon (NOAA-19) SZA (NOAA-19 ) Date (TERRA) Time (TERRA) Lat,Lon (TERRA) SZA (TERRA ) Distance(km) Time Diff (sec)
1 04/22/2015 09:00:27 -71.79,-131.65 120.41 04/22/2015 09:00:34 -71.79,-131.67 120.41 0.52 7
2 04/22/2015 09:51:17 71.42, 36.30 59.23 04/22/2015 09:50:05 71.48, 35.45 59.26 30.78 72
3 04/24/2015 13:43:53 -71.86, 157.41 121.07 04/24/2015 13:44:46 -71.89, 157.44 121.04 3.39 53
4 04/24/2015 14:34:48 71.74, -35.10 58.80 04/24/2015 14:34:14 71.73, -35.18 58.79 2.93 34
5 04/26/2015 19:18:14 71.80,-106.05 58.16 04/26/2015 19:18:26 71.80,-106.12 58.15 2.77 12
6 04/26/2015 20:09:11 -71.39, 61.96 122.25 04/26/2015 20:08:00 -71.47, 60.96 122.21 36.64 71
7 04/29/2015 00:01:40 71.88,-177.01 57.54 04/29/2015 00:02:37 71.89,-177.01 57.55 1.47 57
8 04/29/2015 00:52:43 -71.78, -9.59 122.57 04/29/2015 00:52:07 -71.78, -9.57 122.58 0.95 36
9 05/01/2015 05:36:08 -71.83, -80.51 123.20 05/01/2015 05:36:18 -71.85, -80.49 123.18 2.15 10
10 05/01/2015 06:27:00 71.52, 87.34 56.50 05/01/2015 06:25:48 71.58, 86.69 56.53 23.99 72
11 05/03/2015 10:19:33 -71.90,-151.45 123.79 05/03/2015 10:20:29 -71.90,-151.46 123.78 0.54 56
12 05/03/2015 11:10:29 71.77, 16.06 56.08 05/03/2015 11:09:56 71.79, 15.99 56.09 3.16 33
